Location: ?????????
(38.5999°N, 22.7695°E)
Time: 09:20:13
(UTC+00:00)

Cosmos 2154 Rocket - Pass Details

Date: 20 August 2024
Orbit: 964 x 997 km, 82.9° (Epoch: 07 September)

Event Time Altitude Azimuth Distance (km) Brightness Sun altitude
Rises 01:34:35 0° 3° (N) 3,667 7.6 -23.7°
Reaches altitude 10° 01:37:26 10° 13° (NNE) 2,713 7.0 -23.2°
Maximum altitude 01:42:52 31° 75° (ENE) 1,615 5.7 -22.4°
Drops below altitude 10° 01:48:16 10° 136° (SE) 2,696 6.4 -21.6°
Sets 01:51:03 0° 147° (SSE) 3,639 7.0 -21.2°
